User: anonymous
Location: Fort Wayne
(41.1310°N, 85.1290°W)
Time: 06:10:42
(UTC-04:00)
Language:

Cosmos 2056 Rocket - Orbit

View from above orbital plane
View from above orbital plane
View from above satellite
View from above satellite

Ground track
Ground track

The orbit data is extracted from the following two-line orbital elements,

1 20433U 90004B   14241.01206731  .00000185  00000-0  72343-4 0  7981
2 20433 074.0354 074.1728 0040227 092.7475 061.5675 14.35659590288347
Epoch (UTC): 29 August 2014 00:17:22
Eccentricity: 0.0040227
inclination: 74.0354°
perigee height: 744 km
apogee height: 801 km
right ascension of ascending node: 74.1728°
argument of perigee: 92.7475°
revolutions per day: 14.35659590
mean anomaly at epoch: 61.5675°
orbit number at epoch: 28834

The dashed part of the orbit path shows where the satellite is in the earth's shadow,  

DLR